Location: Borger
(52.9222°N, 6.7926°E)
Time: 11:30:24
(UTC+00:00)

Cosmos 1271 Rocket - Pass Details

Date: 15 May 2026
Orbit: 421 x 448 km, 81.2° (Epoch: 6 June)

Event Time Altitude Azimuth Distance (km) Brightness Sun altitude
Exits shadow 22:05:53 31° 123° (ESE) 795 3.2 -15.8°
Maximum altitude 22:06:34 35° 96° (E) 734 3.2 -15.8°
Drops below altitude 10° 22:09:41 10° 29° (NNE) 1,555 5.7 -16.0°
Sets 22:11:50 0° 20° (NNE) 2,423 7.0 -16.1°
